Location: PSU-Greenbush Astrophysical Observatory
(37.5140°N, 94.9880°W)
Time: 06:01:09
(UTC-06:00)

Transit 2A - Pass Details

Date: 26 January 2020
Orbit: 599 x 959 km, 66.7° (Epoch: 28 February)

Event Time Altitude Azimuth Distance (km) Brightness Sun altitude
Rises 19:37:43 0° 210° (SSW) 2,931 9.5 -23.9°
Reaches altitude 10° 19:40:02 10° 211° (SSW) 1,991 8.6 -24.4°
Enters shadow 19:44:20 76° 274° (W) 627 5.6 -25.2°
Maximum altitude 19:44:28 77° 297° (WNW) 624 - -25.3°
Drops below altitude 10° 19:48:48 10° 25° (NNE) 1,943 - -26.1°
Sets 19:51:02 0° 27° (NNE) 2,854 - -26.6°
